Regional Weather Roundup
Issued by NWS

Home | Current Version | Previous Version | Text Only | Print | Product List | Glossary On
Versions: 1 2 3 4 5 6 7 8 9 10 11 12 13 14 15 16 17 18 19 20 21 22 23 24 25 26 27 28 29 30 31 32 33 34 35 36 37 38 39 40 41 42 43 44 45 46 47 48 49 50
946
ASUS45 KREV 111110
RWRNV
NEVADA REGIONAL WEATHER ROUNDUP
NATIONAL WEATHER SERVICE RENO NV
300 AM PST THU FEB 11 2016

NOTE: "FAIR" INDICATES FEW OR NO CLOUDS BELOW 12,000 FEET WITH NO
SIGNIFICANT WEATHER AND/OR OBSTRUCTIONS TO VISIBILITY.

NVZ001-003-004-111200-
WESTERN NEVADA

CITY           SKY/WX    TMP DP  RH WIND       PRES   REMARKS
RENO           PTCLDY    34  29  82 CALM      30.33S
CARSON CITY    FAIR      32  28  86 E3        30.33F
MINDEN         FAIR      28  28 100 CALM      30.34S
SLIDE MTN        N/A     41  14  33 W24         N/A
PYRAMID LAKE     N/A     43 N/A N/A NW3         N/A
FALLON         MOCLDY    32  30  92 SE5       30.32S
LOVELOCK       MOCLDY    26  24  92 S3        30.32S
HAWTHORNE      CLEAR     36  32  87 CALM      30.33S
$$

NVZ002-CAZ072-073-111200-
NORTHERN AND CENTRAL SIERRA

CITY           SKY/WX    TMP DP  RH WIND       PRES   REMARKS
S. LAKE TAHOE  PTCLDY    26  22  84 S3        30.36F
TRUCKEE        CLEAR     27  23  86 CALM      30.36F
SQUAW VLY 8000   N/A     43  16  33 W10         N/A
SUSANVILLE     CLEAR     36  32  87 W3        30.31F
BLUE CANYON    CLEAR     57  11  16 CALM      30.31S
MAMMOTH LAKES  FAIR      28  19  69 CALM      30.41S
BRIDGEPORT     FAIR      25  19  78 CALM      30.36F
$$

NVZ030-031-036-111200-
NORTHERN NEVADA

CITY           SKY/WX    TMP DP  RH WIND       PRES   REMARKS
ELKO           MOCLDY    13   8  81 NE6       30.42F
WINNEMUCCA     MOCLDY    34  29  82 NE10      30.33F
WENDOVER       CLOUDY    30  25  80 CALM      30.46S
$$

NVZ035-037-111200-
CENTRAL NEVADA

CITY           SKY/WX    TMP DP  RH WIND       PRES   REMARKS
ELY            MOCLDY    16   8  71 S15       30.39S
EUREKA           N/A     13   8  81 SW6       30.39S
$$

NVZ013-014-111200-
SOUTH CENTRAL NEVADA

CITY           SKY/WX    TMP DP  RH WIND       PRES   REMARKS
TONOPAH        MOCLDY    31  24  75 N10       30.36S
$$

NVZ017-020-022-111200-
SOUTHERN NEVADA

CITY           SKY/WX    TMP DP  RH WIND       PRES   REMARKS
LAS VEGAS      PTCLDY    49  26  41 SW6       30.20S
N. LAS VEGAS   CLEAR     49  27  42 W8        30.23F
NELLIS AFB     CLEAR     45  30  56 N3        30.23F
HENDERSON      CLEAR     45  26  47 S8        30.25F
MERCURY        PTCLDY    45  24  43 CALM      30.25F
$$




USA.gov is the U.S. government's official web portal to all federal, state and local government web resources and services.